Location: Los Ranchitos
(37.9930°N, 122.5425°W)
Time: 07:34:00
(UTC+00:00)

Meteor 1-21 - Pass Details

Date: 21 September 2020
Orbit: 845 x 887 km, 81.2° (Epoch: 28 October)

Event Time Altitude Azimuth Distance (km) Brightness Sun altitude
Rises 02:32:27 0° 356° (N) 3,419 7.5 -5.4°
Reaches altitude 10° 02:34:57 10° 1° (N) 2,477 6.7 -5.9°
Maximum altitude 02:40:26 54° 78° (ENE) 1,018 4.3 -7.0°
Drops below altitude 10° 02:45:53 10° 156° (SSE) 2,460 6.3 -8.0°
Sets 02:48:20 0° 160° (SSE) 3,394 7.1 -8.5°
